Location: Arroyo Grande
(40.2671°N, 4.2512°W)
Time: 00:07:42
(UTC+00:00)

Cosmos 2278 Rocket - Pass Details

Date: 27 September 2023
Orbit: 842 x 844 km, 71.0° (Epoch: 03 December)

Event Time Altitude Azimuth Distance (km) Brightness Sun altitude
Rises 20:12:02 0° 338° (NNW) 3,410 5.9 -24.4°
Reaches altitude 10° 20:14:30 10° 341° (NNW) 2,471 5.1 -24.8°
Maximum altitude 20:20:10 70° 65° (ENE) 899 2.1 -25.8°
Enters shadow 20:20:16 69° 74° (ENE) 900 2.1 -25.9°
